{"data":{"norad_id":59389,"intl_designator":"2024-062R","name":"STARLINK-31647","alt_names":[],"object_type":"PAYLOAD","status":"ACTIVE","operator":null,"country":"US","launch_date":"2024-04-02","launch_site_code":"AFWTR","launch_vehicle":null,"mission":null,"orbit_class":"UNKNOWN","rcs_meters":null,"size_class":null,"mass_kg":null,"dimensions":null,"purposes":["comms"],"wikipedia_slug":null,"has_3d_model":false,"image_url":null,"decayed_at":null,"tle_current":{"epoch":"2026-09-21T18:31:49.660320Z","epoch_age_seconds":52413,"freshness":"FRESH","line1":"1 59389U 24062R   26264.77210255  .00001290  00000+0  49307-4 0  9995","line2":"2 59389  53.1588  61.9965 0001080 127.0138 233.0963 15.34391940139731","mean_motion":15.3439194,"eccentricity":0.000108,"inclination_deg":53.1588,"raan_deg":61.9965,"arg_perigee_deg":127.0138,"mean_anomaly_deg":233.0963,"bstar":4.9307e-5,"rev_number":13973,"period_min":93.848251053769,"perigee_km":461.98838299734,"apogee_km":463.46600966374,"semimajor_km":6840.8641963305,"source":"CELESTRAK","updated_at":"2026-09-22T09:00:48.910972Z"}}}